Weather History for KXVG - February, 2013

Change the Weather History Date:

Monday, February 18, 2013

  Actual Average (KPWC) Record (KPWC)
Temperature  
Mean Temperature 14 °F -  
Max Temperature 26 °F 26 °F 50 °F (2002)
Min Temperature 1 °F 7 °F -23 °F (2006)
Degree Days  
Heating Degree Days 52    
Moisture  
Dew Point 12 °F    
Average Humidity 80    
Maximum Humidity 93    
Minimum Humidity 72    
Precipitation  
Precipitation 0.00 in - - ()
Sea Level Pressure  
Sea Level Pressure 29.61 in    
Wind  
Wind Speed 6 mph (NW)    
Max Wind Speed 16 mph    
Max Gust Speed 24 mph    
Visibility 7 miles    
Events Snow    
Averages and records for this station are not official NWS values.
T = Trace of Precipitation, MM = Missing Value Source: NWS Daily Summary

Daily Weather History Graph

Daily Weather History Graph

Search for Another Location

Airport or City:

Trip Planner

Search our weather history database for the weather conditions in past years. The results will help you decide how hot, cold, wet, or windy it might be!

Date:

Astronomy

Feb. 18, 2013 Rise Set
Actual Time 7:15 AM CST 5:46 PM CST
Civil Twilight 6:44 AM CST 6:17 PM CST
Nautical Twilight 6:09 AM CST 6:52 PM CST
Astronomical Twilight 5:34 AM CST 7:28 PM CST
Moon 11:21 AM CST (2/18) 2:06 AM CST (2/18)
Length of Visible Light 11h 32m
Length of Day
10h 30m
First Quarter, 58% of the Moon is Illuminated
Feb 18
First Quarter
Feb 25
Full
Mar 4
Last Quarter
Mar 11
New
Mar 19
First Quarter

Hourly Weather History & Observations

Time (CST) Temp. Windchill Dew Point Humidity Pressure Visibility Wind Dir Wind Speed Gust Speed Precip Events Conditions
12:16 AM 23.0 °F 17.0 °F 17.6 °F 80% 29.54 in 10.0 mi SE 4.6 mph - N/A   Clear
12:36 AM 23.0 °F - 17.6 °F 80% 29.54 in 10.0 mi Calm Calm - N/A   Clear
12:56 AM 23.0 °F - 17.6 °F 80% 29.53 in 10.0 mi Calm Calm - N/A   Clear
1:16 AM 23.0 °F 17.0 °F 17.6 °F 80% 29.52 in 10.0 mi SE 4.6 mph - N/A   Clear
1:36 AM 23.0 °F 18.4 °F 19.4 °F 86% 29.52 in 10.0 mi SE 3.5 mph - N/A   Scattered Clouds
1:56 AM 23.0 °F 18.4 °F 17.6 °F 80% 29.52 in 10.0 mi SE 3.5 mph - N/A   Scattered Clouds
2:16 AM 23.0 °F 17.0 °F 17.6 °F 80% 29.51 in 10.0 mi SE 4.6 mph - N/A   Mostly Cloudy
2:36 AM 23.0 °F 14.7 °F 17.6 °F 80% 29.51 in 10.0 mi SE 6.9 mph - N/A   Scattered Clouds
2:56 AM 23.0 °F 17.0 °F 17.6 °F 80% 29.50 in 10.0 mi ESE 4.6 mph - N/A   Mostly Cloudy
3:16 AM 23.0 °F - 17.6 °F 80% 29.48 in 10.0 mi Calm Calm - N/A   Mostly Cloudy
3:36 AM 23.0 °F 18.4 °F 17.6 °F 80% 29.49 in 10.0 mi ESE 3.5 mph - N/A   Mostly Cloudy
3:56 AM 23.0 °F 18.4 °F 17.6 °F 80% 29.48 in 10.0 mi SE 3.5 mph - N/A   Mostly Cloudy
4:15 AM 23.0 °F 17.0 °F 19.4 °F 86% 29.49 in 10.0 mi SE 4.6 mph - N/A   Overcast
4:36 AM 24.8 °F 20.5 °F 19.4 °F 80% 29.48 in 10.0 mi SE 3.5 mph - N/A   Overcast
4:56 AM 24.8 °F 20.5 °F 19.4 °F 80% 29.48 in 7.0 mi SE 3.5 mph - N/A Snow Light Snow
5:16 AM 24.8 °F 19.1 °F 19.4 °F 80% 29.48 in 10.0 mi SE 4.6 mph - N/A Snow Light Snow
5:36 AM 24.8 °F 20.5 °F 19.4 °F 80% 29.48 in 10.0 mi SE 3.5 mph - N/A   Overcast
5:56 AM 24.8 °F 19.1 °F 19.4 °F 80% 29.48 in 7.0 mi SE 4.6 mph - N/A Snow Light Snow
6:16 AM 23.0 °F 18.4 °F 19.4 °F 86% 29.48 in 4.0 mi SSE 3.5 mph - N/A Snow Light Snow
6:36 AM 23.0 °F 18.4 °F 19.4 °F 86% 29.47 in 10.0 mi SSE 3.5 mph - N/A   Overcast
6:56 AM 23.0 °F 18.4 °F 19.4 °F 86% 29.47 in 10.0 mi South 3.5 mph - N/A   Overcast
7:16 AM 23.0 °F - 19.4 °F 86% 29.46 in 10.0 mi Calm Calm - N/A   Overcast
7:36 AM 23.0 °F - 19.4 °F 86% 29.46 in 10.0 mi Calm Calm - N/A   Overcast
7:56 AM 24.8 °F - 19.4 °F 80% 29.46 in 10.0 mi Calm Calm - N/A   Overcast
8:36 AM 24.8 °F - 19.4 °F 80% 29.46 in 10.0 mi Calm Calm - N/A   Overcast
8:56 AM 24.8 °F - 19.4 °F 80% 29.47 in 10.0 mi Calm Calm - N/A   Overcast
9:16 AM 24.8 °F - 21.2 °F 86% 29.47 in 10.0 mi Calm Calm - N/A   Overcast
9:36 AM 24.8 °F - 21.2 °F 86% 29.48 in 7.0 mi Calm Calm - N/A   Overcast
9:56 AM 24.8 °F 20.5 °F 21.2 °F 86% 29.48 in 10.0 mi WSW 3.5 mph - N/A   Overcast
10:16 AM 26.6 °F - 21.2 °F 80% 29.49 in 7.0 mi Calm Calm - N/A   Mostly Cloudy
10:36 AM 26.6 °F 19.1 °F 21.2 °F 80% 29.50 in 7.0 mi West 6.9 mph - N/A   Overcast
10:56 AM 26.6 °F 20.0 °F 21.2 °F 80% 29.51 in 7.0 mi West 5.8 mph - N/A   Overcast
11:16 AM 26.6 °F 14.7 °F 21.2 °F 80% 29.52 in 5.0 mi WNW 15.0 mph 19.6 mph N/A   Overcast
11:36 AM 24.8 °F 12.9 °F 19.4 °F 80% 29.53 in 4.0 mi WNW 13.8 mph 21.9 mph N/A   Overcast
11:56 AM 23.0 °F 10.6 °F 19.4 °F 86% 29.54 in 3.0 mi WNW 13.8 mph 18.4 mph N/A   Overcast
12:16 PM 21.2 °F 9.5 °F 19.4 °F 93% 29.55 in 2.5 mi WNW 11.5 mph 21.9 mph N/A   Overcast
12:36 PM 21.2 °F 10.1 °F 17.6 °F 86% 29.56 in 3.0 mi WNW 10.4 mph 16.1 mph N/A   Overcast
12:56 PM 21.2 °F 8.3 °F 17.6 °F 86% 29.57 in 3.0 mi WNW 13.8 mph 20.7 mph N/A   Overcast
1:16 PM 19.4 °F 7.2 °F 15.8 °F 86% 29.58 in 5.0 mi WNW 11.5 mph 21.9 mph N/A   Overcast
1:35 PM 17.6 °F 5.0 °F 14.0 °F 86% 29.59 in 4.0 mi NW 11.5 mph 21.9 mph N/A Snow Light Snow
1:56 PM 17.6 °F 3.7 °F 12.2 °F 79% 29.60 in 4.0 mi WNW 13.8 mph 23.0 mph N/A Snow Light Snow
2:16 PM 15.8 °F 2.1 °F 10.4 °F 79% 29.60 in 3.0 mi NW 12.7 mph 24.2 mph N/A Snow Light Snow
2:36 PM 15.8 °F 3.4 °F 10.4 °F 79% 29.61 in 2.5 mi NW 10.4 mph 24.2 mph N/A Snow Light Snow
2:56 PM 15.8 °F 0.3 °F 10.4 °F 79% 29.62 in 1.0 mi NW 16.1 mph 24.2 mph N/A Snow Light Snow
3:15 PM 14.0 °F 0.5 °F 8.6 °F 79% 29.64 in 2.5 mi NW 11.5 mph 23.0 mph N/A Snow Light Snow
3:36 PM 14.0 °F 0.5 °F 8.6 °F 79% 29.65 in 2.5 mi NW 11.5 mph 19.6 mph N/A Snow Light Snow
3:56 PM 14.0 °F 1.2 °F 8.6 °F 79% 29.66 in 1.0 mi WNW 10.4 mph 18.4 mph N/A Snow Light Snow
4:16 PM 12.2 °F -0.2 °F 6.8 °F 79% 29.67 in 3.0 mi NNW 9.2 mph 21.9 mph N/A Snow Light Snow
4:36 PM 12.2 °F -1.0 °F 5.0 °F 73% 29.68 in 7.0 mi NNW 10.4 mph 20.7 mph N/A Snow Light Snow
4:56 PM 12.2 °F -2.5 °F 5.0 °F 73% 29.70 in 5.0 mi NW 12.7 mph 20.7 mph N/A Snow Light Snow
5:16 PM 10.4 °F -6.0 °F 3.2 °F 73% 29.71 in 7.0 mi NW 15.0 mph 23.0 mph N/A Snow Light Snow
5:36 PM 10.4 °F -2.4 °F 3.2 °F 73% 29.72 in 7.0 mi NNW 9.2 mph 20.7 mph N/A Snow Light Snow
5:56 PM 10.4 °F -0.4 °F 3.2 °F 73% 29.74 in 10.0 mi NW 6.9 mph 19.6 mph N/A Snow Light Snow
6:16 PM 10.4 °F -3.3 °F 3.2 °F 73% 29.75 in 4.0 mi NW 10.4 mph - N/A Snow Light Snow
6:36 PM 8.6 °F -5.5 °F 3.2 °F 79% 29.75 in 3.0 mi NW 10.4 mph 19.6 mph N/A Snow Light Snow
6:56 PM 8.6 °F -5.5 °F 1.4 °F 73% 29.76 in 5.0 mi NW 10.4 mph 17.3 mph N/A Snow Light Snow
7:16 PM 8.6 °F -5.5 °F 3.2 °F 79% 29.77 in 4.0 mi NNW 10.4 mph 18.4 mph N/A Snow Light Snow
7:36 PM 6.8 °F -6.9 °F 1.4 °F 79% 29.78 in 3.0 mi NW 9.2 mph 16.1 mph N/A Snow Light Snow
7:56 PM 6.8 °F -7.8 °F 1.4 °F 79% 29.78 in 4.0 mi NNW 10.4 mph 19.6 mph N/A Snow Light Snow
8:16 PM 6.8 °F -6.9 °F 1.4 °F 79% 29.79 in 3.0 mi NNW 9.2 mph 19.6 mph N/A Snow Light Snow
8:36 PM 5.0 °F -9.1 °F -0.4 °F 78% 29.79 in 4.0 mi NNW 9.2 mph 20.7 mph N/A Snow Light Snow
8:56 PM 5.0 °F -9.1 °F -0.4 °F 78% 29.80 in 10.0 mi NNW 9.2 mph 17.3 mph N/A   Mostly Cloudy
9:16 PM 5.0 °F -5.6 °F -0.4 °F 78% 29.81 in 5.0 mi NW 5.8 mph 18.4 mph N/A Snow Light Snow
9:36 PM 3.2 °F -11.3 °F -2.2 °F 78% 29.82 in 7.0 mi NNW 9.2 mph 19.6 mph N/A   Scattered Clouds
9:56 PM 3.2 °F -10.3 °F -2.2 °F 78% 29.82 in 5.0 mi NNW 8.1 mph - N/A   Haze
10:16 PM 3.2 °F -11.3 °F -2.2 °F 78% 29.83 in 10.0 mi NNW 9.2 mph 16.1 mph N/A   Scattered Clouds
10:36 PM 3.2 °F -10.3 °F -4.0 °F 72% 29.84 in 7.0 mi NNW 8.1 mph - N/A   Clear
10:56 PM 1.4 °F -13.5 °F -4.0 °F 78% 29.84 in 7.0 mi NW 9.2 mph 17.3 mph N/A   Clear
11:16 PM 1.4 °F -15.3 °F -4.0 °F 78% 29.85 in 7.0 mi NW 11.5 mph 17.3 mph N/A   Clear
11:36 PM 1.4 °F -13.5 °F -4.0 °F 78% 29.86 in 7.0 mi NW 9.2 mph 17.3 mph N/A   Mostly Cloudy
11:56 PM 1.4 °F -9.9 °F -5.8 °F 72% 29.87 in 10.0 mi NW 5.8 mph 17.3 mph N/A   Overcast